Location: *
(50.2903°S, 172.5375°W)
Time: 01:39:53
(UTC+00:00)

USA 238 DEB - Pass Details

Date: 17 November 2019
Orbit: 1024 x 1188 km, 63.4° (Epoch: 29 November)

Event Time Altitude Azimuth Distance (km) Brightness Sun altitude
Exits shadow 12:46:10 20° 304° (NW) 2,425 5.1 -17.9°
Maximum altitude 12:51:37 72° 223° (SW) 1,218 4.0 -17.5°
Drops below altitude 10° 12:58:51 10° 138° (SE) 3,016 7.2 -17.0°
Sets 13:01:31 0° 135° (SE) 3,953 8.1 -16.8°
